Location: Asheville, NC
(35.6000°N, 82.5500°W)
Time: 22:11:21

KAITUO 1B - Pass Details

Date: 03 January 2018
Orbit: 500 x 520 km, 97.5° (Epoch: 23 March)

Event Time Altitude Azimuth Distance (km) Brightness Sun altitude
Rises 06:43:23 0° 12° (NNE) 2,632 ? -11.4°
Reaches altitude 10° 06:45:30 10° 13° (NNE) 1,738 ? -11.0°
Maximum altitude 06:49:14 82° 100° (E) 518 ? -10.3°
Drops below altitude 10° 06:52:56 10° 190° (S) 1,713 ? -9.6°
Sets 06:55:00 0° 191° (S) 2,589 ? -9.2°
